{"data":{"norad_id":59163,"intl_designator":"2024-044M","name":"STARLINK-31278","alt_names":[],"object_type":"PAYLOAD","status":"ACTIVE","operator":null,"country":"US","launch_date":"2024-03-04","launch_site_code":"AFETR","launch_vehicle":null,"mission":null,"orbit_class":"UNKNOWN","rcs_meters":null,"size_class":null,"mass_kg":null,"dimensions":null,"purposes":["comms"],"wikipedia_slug":null,"has_3d_model":false,"image_url":null,"decayed_at":null,"tle_current":{"epoch":"2026-09-20T21:43:55.524864Z","epoch_age_seconds":123861,"freshness":"FRESH","line1":"1 59163U 24044M   26263.90550376 -.00000426  00000+0 -59548-5 0  9991","line2":"2 59163  43.0036  84.3508 0001554 268.6092  91.4581 15.27577485143421","mean_motion":15.27577485,"eccentricity":0.0001554,"inclination_deg":43.0036,"raan_deg":84.3508,"arg_perigee_deg":268.6092,"mean_anomaly_deg":91.4581,"bstar":-5.9548e-6,"rev_number":14342,"period_min":94.266903914206,"perigee_km":481.99039737514,"apogee_km":484.12285635437,"semimajor_km":6861.1936268648,"source":"CELESTRAK","updated_at":"2026-09-21T09:00:34.058281Z"}}}